EW6193 Weather Reports


Display with metric or nautical units.
time (UTC)temp
F
wind
direction
speed
MPH
gust
MPH
rain 1hr
in
rain 24hr
in
rain mn
in
humidity
%
barometer
mb
20240223161526 52 290 0.0 0.0 0.00 0.00 0.00 85 1013.4
20240223160031 53 290 0.0 0.0 0.00 0.00 0.00 84 1013.6
20240223154524 54 290 0.0 0.0 0.00 0.00 0.00 84 1013.7
20240223153018 54 290 0.0 0.0 0.00 0.00 0.00 83 1013.9
20240223151524 55 290 0.0 0.0 0.00 0.00 0.00 81 1013.9
20240223150018 56 290 0.0 0.0 0.00 0.00 0.00 82 1014.0
20240223144515 56 290 0.0 0.0 0.00 0.00 0.00 81 1014.1
20240223143011 57 290 0.0 0.0 0.00 0.00 0.00 80 1014.4
20240223141500 58 290 0.0 0.0 0.00 0.00 0.00 79 1014.5
20240223140100 58 290 0.0 1.0 0.00 0.00 0.00 78 1014.8
20240223134558 59 287 0.0 1.0 0.00 0.00 0.00 77 1015.0
20240223133051 60 289 0.0 2.0 0.00 0.00 0.00 76 1015.1
20240223131553 61 283 1.0 3.0 0.00 0.00 0.00 75 1015.3
20240223130048 61 283 1.0 5.0 0.00 0.00 0.00 74 1015.5
20240223124542 62 289 1.0 5.0 0.00 0.00 0.00 74 1015.5
20240223123040 62 291 0.0 3.0 0.00 0.00 0.00 73 1015.6
20240223121537 62 288 1.0 3.0 0.00 0.00 0.00 73 1015.7
20240223120041 63 287 2.0 6.0 0.00 0.00 0.00 72 1015.8
20240223114545 63 283 1.0 5.0 0.00 0.00 0.00 71 1015.8
20240223113031 63 267 1.0 4.0 0.00 0.00 0.00 70 1015.7
20240223111532 64 290 1.0 4.0 0.00 0.00 0.00 69 1015.7
20240223110025 64 287 1.0 6.0 0.00 0.00 0.00 68 1015.8
20240223104525 64 279 2.0 6.0 0.00 0.00 0.00 67 1015.9
20240223103024 65 280 1.0 3.0 0.00 0.00 0.00 66 1015.9
20240223101527 65 289 1.0 5.0 0.00 0.00 0.00 65 1016.0
20240223100033 65 277 1.0 3.0 0.00 0.00 0.00 64 1015.9
20240223094523 65 288 0.0 2.0 0.00 0.00 0.00 64 1015.9
20240223093022 64 293 0.0 1.0 0.00 0.00 0.00 65 1016.0
20240223091552 64 252 0.0 3.0 0.00 0.00 0.00 67 1016.1
20240223090021 64 129 0.0 0.0 0.00 0.00 0.00 67 1016.1
20240223084535 65 130 0.0 1.0 0.00 0.00 0.00 66 1015.7
20240223083028 66 94 0.0 1.0 0.00 0.00 0.00 64 1015.6
20240223081521 67 92 0.0 3.0 0.00 0.00 0.00 63 1015.5
20240223080019 68 171 0.0 2.0 0.00 0.00 0.00 60 1015.4
20240223074519 69 20 0.0 3.0 0.00 0.00 0.00 57 1015.2
20240223073018 70 325 0.0 2.0 0.00 0.00 0.00 56 1015.0
20240223071517 71 306 1.0 5.0 0.00 0.00 0.00 55 1014.9
20240223070016 72 354 1.0 5.0 0.00 0.00 0.00 53 1014.6
20240223064516 74 328 0.0 6.0 0.00 0.00 0.00 51 1014.6
20240223063022 76 326 1.0 5.0 0.00 0.00 0.00 48 1014.4
20240223061516 78 360 1.0 5.0 0.00 0.00 0.00 47 1014.4
20240223060015 77 316 0.0 4.0 0.00 0.00 0.00 50 1014.3
20240223054514 77 291 1.0 5.0 0.00 0.00 0.00 49 1014.4
20240223053014 76 297 0.0 3.0 0.00 0.00 0.00 51 1014.4
20240223051513 76 238 0.0 5.0 0.00 0.00 0.00 55 1014.4
20240223050015 76 120 1.0 7.0 0.00 0.00 0.00 54 1014.3
20240223044512 76 113 5.0 9.0 0.00 0.00 0.00 53 1014.4
20240223043008 76 126 3.0 10.0 0.00 0.00 0.00 53 1014.5
20240223041507 76 139 7.0 12.0 0.00 0.00 0.00 53 1014.4
20240223040005 76 113 6.0 13.0 0.00 0.00 0.00 52 1014.6
20240223034504 77 113 5.0 12.0 0.00 0.00 0.00 51 1014.6
20240223033002 77 101 6.0 12.0 0.00 0.00 0.00 51 1014.8
20240223031606 77 129 4.0 10.0 0.00 0.00 0.00 50 1014.9
20240223030055 77 91 5.0 9.0 0.00 0.00 0.00 50 1015.2
20240223024611 77 84 5.0 11.0 0.00 0.00 0.00 50 1015.4
20240223023050 78 108 6.0 10.0 0.00 0.00 0.00 49 1015.7
20240223021548 77 77 4.0 9.0 0.00 0.00 0.00 48 1016.0
20240223020046 78 90 3.0 10.0 0.00 0.00 0.00 47 1016.0
20240223014552 79 99 1.0 9.0 0.00 0.00 0.00 46 1016.1
20240223013044 78 355 1.0 10.0 0.00 0.00 0.00 45 1016.4
20240223011541 80 110 2.0 6.0 0.00 0.00 0.00 44 1016.5
20240223010045 79 111 0.0 5.0 0.00 0.00 0.00 44 1016.6
20240223004538 77 103 0.0 5.0 0.00 0.00 0.00 44 1016.8
20240223003036 78 96 2.0 5.0 0.00 0.00 0.00 43 1017.0
20240223001535 77 117 1.0 4.0 0.00 0.00 0.00 45 1017.2
20240223000035 77 93 1.0 2.0 0.00 0.00 0.00 45 1017.4
20240222234532 78 51 0.0 0.0 0.00 0.00 0.00 46 1017.7
20240222233041 78 113 0.0 2.0 0.00 0.00 0.00 45 1017.8
20240222231530 78 282 0.0 3.0 0.00 0.00 0.00 46 1017.9
20240222230022 77 335 0.0 4.0 0.00 0.00 0.00 48 1018.1
20240222224519 75 274 0.0 5.0 0.00 0.00 0.00 52 1018.2
20240222223020 74 312 2.0 8.0 0.00 0.00 0.00 53 1018.5
20240222221516 73 283 1.0 7.0 0.00 0.00 0.00 53 1018.6
20240222220011 73 328 1.0 6.0 0.00 0.00 0.00 53 1018.6
20240222214509 72 265 2.0 8.0 0.00 0.00 0.00 54 1018.9
20240222213006 71 281 2.0 5.0 0.00 0.00 0.00 56 1018.9
20240222211502 70 290 1.0 4.0 0.00 0.00 0.00 60 1018.9
20240222210059 68 278 1.0 7.0 0.00 0.00 0.00 65 1019.1
20240222204557 67 282 0.0 3.0 0.00 0.00 0.00 66 1019.2
20240222203055 67 286 0.0 3.0 0.00 0.00 0.00 66 1019.2
20240222201554 67 290 0.0 3.0 0.00 0.00 0.00 68 1019.1
20240222200054 64 313 0.0 1.0 0.00 0.00 0.00 72 1019.2
20240222194550 61 321 0.0 0.0 0.00 0.00 0.00 79 1019.1
20240222193049 59 321 0.0 0.0 0.00 0.00 0.00 80 1019.1
20240222191559 59 321 0.0 0.0 0.00 0.00 0.00 80 1019.1
20240222190048 58 321 0.0 0.0 0.00 0.00 0.00 80 1019.0
20240222184601 58 321 0.0 0.0 0.00 0.00 0.00 80 1019.0
20240222183056 57 321 0.0 0.0 0.00 0.00 0.00 81 1019.0
20240222181558 57 321 0.0 0.0 0.00 0.00 0.00 80 1019.0
20240222180046 57 321 0.0 0.0 0.00 0.00 0.00 80 1018.9
20240222174542 58 321 0.0 0.0 0.00 0.00 0.00 80 1018.8
20240222173044 57 321 0.0 0.0 0.00 0.00 0.00 80 1018.9
20240222171544 57 321 0.0 0.0 0.00 0.00 0.00 79 1018.9
20240222170039 57 321 0.0 0.0 0.00 0.00 0.00 79 1018.8
20240222164541 57 321 0.0 0.0 0.00 0.00 0.00 80 1018.9
20240222163035 57 321 0.0 0.0 0.00 0.00 0.00 80 1019.0